Weather Service Report


703 
ASUS42 KCAE 020410
RWRCAE
REGIONAL WEATHER ROUNDUP
NATIONAL WEATHER SERVICE COLUMBIA SC
1100 PM EST SUN MAR 01 2015

NOTE: "FAIR" INDICATES FEW OR NO CLOUDS BELOW 12,000 FEET WITH NO
SIGNIFICANT WEATHER AND/OR OBSTRUCTIONS TO VISIBILITY.

NOT ALL STATIONS ARE QUALITY CONTROLLED BY THE NATIONAL 
WEATHER SERVICE. USE DATA WITH CAUTION...ESPECIALLY 
DEWPOINT OBSERVATIONS.

SCZ001>056-GAZ040-063>065-077-020500-
...UPSTATE SOUTH CAROLINA...
  
CITY           SKY/WX    TMP DP  RH WIND       PRES   REMARKS
ANDERSON       FOG       42  42 100 SW6       30.36S VSB 1/2          
LIBERTY        FOG       42  42 100 MISG      30.34S VSB 1            
SPARTANBURG    FOG       43 N/A N/A SW3       30.32F VSB 1/4          
CLEMSON        CLOUDY    45  40  82 CALM      30.36S HAZE             
GREENVILLE     CLOUDY    43  41  93 W10       30.33F FOG              
GREENWOOD      CLOUDY    41  41 100 W3        30.38S FOG              
GREER          CLOUDY    43  42  97 SW8       30.31F FOG              
ROCK HILL      FOG       39  38  96 SW5       30.34F VSB 1            
CHESTER        FOG       41  41 100 CALM      30.35F VSB 3/4          
LAURENS        FOG       41  41 100 SW8       30.35F VSB 1/2          


...CENTRAL SOUTH CAROLINA...
  
CITY           SKY/WX    TMP DP  RH WIND       PRES   REMARKS
COLUMBIA APT   CLOUDY    42  40  92 W6        30.37F                  
COLUMBIA OWENS CLOUDY    42  39  89 W3        30.38F FOG              
DARLINGTON     CLOUDY    39  37  93 W3        30.38S                  
FLORENCE       CLOUDY    41  39  93 SW3       30.35F                  
MCENTIRE ANGB  CLOUDY    41  41  99 W1        30.36F FOG              
ORANGEBURG     CLOUDY    43  40  89 CALM      30.36F FOG              
SUMTER SHAW    CLOUDY    41  39  93 SW2       30.34F                  
NEWBERRY       FOG       39  39 100 SW5       30.39S VSB 3/4          
AIKEN          CLOUDY    41  41 100 N3        30.40S FOG              
BARNWELL       CLOUDY    45  45 100 CALM      30.37F FOG              
MANNING        CLOUDY   N/A N/A N/A CALM      30.37F HAZE             
CAMDEN         CLOUDY    41  41 100 CALM      30.37S                  
LANCASTER      LGT RAIN  39  39 100 SW3       30.36F VSB 1/4          
WINNSBORO      CLOUDY    39  39 100 NW3       30.36S FOG              


...EASTERN AND COASTAL SOUTH CAROLINA...
  
CITY           SKY/WX    TMP DP  RH WIND       PRES   REMARKS
MYRTLE BEACH   CLOUDY    43  39  87 CALM      30.38F VSB 3/4          
N MYRTLE BCH   CLOUDY    42  40  92 CALM      30.35F FOG              
CONWAY         LGT SNOW  41 N/A N/A CALM      30.37F VSB 3/4          
MARION         CLOUDY    41  41 100 CALM      30.36F FOG              
HARTSVILLE     CLOUDY    37  37 100 CALM      30.36F                  
FLORENCE       CLOUDY    41  39  93 SW3       30.35F                  
DARLINGTON     CLOUDY    39  37  93 W3        30.38S                  
CHARLESTON APT FOG       43  42  97 N5        30.37F VSB 1/4          
MOUNT PLEASANT LGT RAIN  45  43  93 NW5       30.37F                  
WALTERBORO     FOG       45  45 100 CALM      30.38F VSB 3/4          
BEAUFORT       CLOUDY    46  44  93 NW7       30.38F FOG              


...EASTERN GEORGIA...
  
CITY           SKY/WX    TMP DP  RH WIND       PRES   REMARKS
AUGUSTA BUSH F CLOUDY    43  42  97 S3        30.37F FOG              
AUGUSTA DANIEL CLOUDY    44  42  93 W3        30.38F FOG              
THOMSON        CLOUDY    44  44 100 CALM      30.43R VSB 1/2          
WASHINGTON     FOG       43 N/A N/A CALM      30.38S VSB 1/2          
CLAXTON        CLOUDY    46  46 100 CALM      30.39F FOG              
SYLVANIA       FOG       45  45 100 CALM      30.39F VSB 3/4          
STATESBORO     FOG       45  45 100 CALM      30.39F VSB 1/2          
SAVANNAH       CLOUDY    47  44  90 W3        30.39F                  


...SOUTHERN NORTH CAROLINA...
  
CITY           SKY/WX    TMP DP  RH WIND       PRES   REMARKS
CHARLOTTE      FOG       39  37  92 S5        30.33F VSB 1/2          
MONROE         FOG       39  37  92 SW7       30.33F VSB 3/4 WCI  34  
WADESBORO      FOG       39  38  97 CALM      30.36F VSB 3/4          
ROCKINGHAM     FOG       37  37  99 SW5       30.35S VSB 1/2 WCI  34  
RUTHERFORDTON  FOG       40  40 100 CALM      30.32S VSB 1/4          
ASHEVILLE      PTCLDY    43  39  86 CALM      30.30S                  

$$

Return to Home page


Western Regional Climate Center, wrcc@dri.edu